(196953) = 1998 YW23 = 2003 UJ50

Discovered at Kitt Peak on 2003-10-17 by Spacewatch.

Orbit

Orbit type: Main Belt

Note: WebGL enabled browser required.

epoch2023-09-13.0
epoch JD2460200.5
perihelion date2024-11-29.10517
perihelion JD2460643.60517
argument of perihelion (°)126.52102
ascending node (°)276.17942
inclination (°)9.43224
eccentricity0.1516915
perihelion distance (AU)2.5661458
Tisserand w.r.t. Jupiter3.2
ΔV w.r.t. Earth (km/sec)10.4
semimajor axis (AU)3.0250148
mean anomaly (°)276.99210
mean daily motion (°/day)0.18733230
aphelion distance (AU)3.484
period (years)5.26
P-vector [x]0.72410746
P-vector [y]0.56874371
P-vector [z]0.39012687
Q-vector [x]-0.67016607
Q-vector [y]0.71385546
Q-vector [z]0.20319403
absolute magnitude15.69
phase slope0.15
uncertainty0
referenceMPEC 2023-N43
observations used491
oppositions16
arc length (days)8971
first opposition used1998
last opposition used2023
residual rms (arc-secs)0.73
perturbers coarse indicatorM-v
perturbers precise indicator003Ek
first observation date used1998-12-16.0
last observation date used2023-07-09.0
computer nameMPCLINUX
JD of orbit computation2456639.719429
perihelion JD uncertainty (days)2.9535E-04
argument of perihelion uncertainty (°)8.1653E-05
ascending node uncertainty (°)5.7513E-05
inclination uncertainty (°)6.1886E-06
eccentricity uncertainty 1.1991E-07
perihelion distance uncertainty (AU)3.9798E-07
Minimum Orbit Intersection Distances (in AU)
for orbit epoch: 2460000.5, reference: E2023-N43
Mercury2.25172
Venus1.85684
Earth1.58845
Mars1.08788
Jupiter1.94188
Saturn6.24321
Uranus15.1723
Neptune27.1601

Observations

502 total observations over interval: 1998 12 16.18717 – 2023 07 09.513216
These data are available for download (format description).

Date (UT) J2000 RA J2000 Dec Magn Location Ref
1998 12 16.18717 05 20 30.35 +26 57 32.2 18.9   704 – Lincoln Laboratory ETS, New Mexico MPS 3480
1998 12 16.23505 05 20 27.55 +26 57 19.1 19.9   704 – Lincoln Laboratory ETS, New Mexico MPS 3480
1998 12 16.28873 05 20 24.27 +26 57 04.7 20.3   704 – Lincoln Laboratory ETS, New Mexico MPS 3480
1998 12 16.33633 05 20 21.27 +26 56 50.9 20.5   704 – Lincoln Laboratory ETS, New Mexico MPS 3480
1998 12 17.31944 05 19 24.66 +26 52 16.8 19.3   704 – Lincoln Laboratory ETS, New Mexico MPS 3480
1998 12 17.34258 05 19 23.31 +26 52 11.9 19.9   704 – Lincoln Laboratory ETS, New Mexico MPS 3480
1998 12 17.36571 05 19 21.74 +26 52 03.7 19.7   704 – Lincoln Laboratory ETS, New Mexico MPS 3480
2002 07 08.24276 20 15 22.88 -14 51 22.1 20.2   644 – Palomar Mountain/NEAT MPS 91047
2002 07 08.30566 20 15 19.87 -14 51 20.1 19.9   644 – Palomar Mountain/NEAT MPS 91047
2002 07 08.36776 20 15 16.91 -14 51 17.7 20.3   644 – Palomar Mountain/NEAT MPS 91047
2003 10 17.47582 03 11 28.25 +30 05 45.7 19.7 V 691 – Steward Observatory, Kitt Peak-Spacewatch MPS 89638
2003 10 17.48956 03 11 27.73 +30 05 44.1 19.6 V 691 – Steward Observatory, Kitt Peak-Spacewatch MPS 89638
2003 10 17.50313 03 11 27.22 +30 05 42.3 19.7 V 691 – Steward Observatory, Kitt Peak-Spacewatch MPS 89638
2003 10 19.45220 03 10 14.18 +30 01 44.3 19.1   644 – Palomar Mountain/NEAT MPS 89638
2003 10 19.46372 03 10 13.70 +30 01 42.8 18.9   644 – Palomar Mountain/NEAT MPS 89638
2003 10 19.47366 03 10 13.32 +30 01 41.4 19.2   644 – Palomar Mountain/NEAT MPS 89638
2003 10 22.30791 03 08 18.39 +29 54 31.6 18.8   704 – Lincoln Laboratory ETS, New Mexico MPS 89638
2003 10 22.31953 03 08 17.87 +29 54 29.6 19.4   704 – Lincoln Laboratory ETS, New Mexico MPS 89638
2003 10 22.33105 03 08 17.26 +29 54 27.5 19.7   704 – Lincoln Laboratory ETS, New Mexico MPS 89638
2003 10 22.34270 03 08 16.85 +29 54 25.9 19.4   704 – Lincoln Laboratory ETS, New Mexico MPS 89638
2003 10 22.35445 03 08 16.33 +29 54 24.5 19.5   704 – Lincoln Laboratory ETS, New Mexico MPS 89638
2003 10 25.30580 03 06 06.46 +29 45 10.5 19.8 V 691 – Steward Observatory, Kitt Peak-Spacewatch MPS 89638
2003 10 25.33327 03 06 05.13 +29 45 04.9 19.6 V 691 – Steward Observatory, Kitt Peak-Spacewatch MPS 89638
2003 10 25.36383 03 06 03.70 +29 44 58.6 19.6 V 691 – Steward Observatory, Kitt Peak-Spacewatch MPS 89638
2003 11 03.26011 02 58 47.47 +29 06 38.2 18.7   704 – Lincoln Laboratory ETS, New Mexico MPS 90592
2003 11 03.27225 02 58 46.90 +29 06 34.2 19.0   704 – Lincoln Laboratory ETS, New Mexico MPS 90592
2003 11 03.28468 02 58 46.14 +29 06 30.1 19.3   704 – Lincoln Laboratory ETS, New Mexico MPS 90592
2003 11 03.29706 02 58 45.44 +29 06 26.7 18.9   704 – Lincoln Laboratory ETS, New Mexico MPS 90592
2003 11 03.30907 02 58 44.88 +29 06 22.8 18.7   704 – Lincoln Laboratory ETS, New Mexico MPS 90592
2003 11 19.25349 02 45 10.62 +27 25 18.7 18.9   704 – Lincoln Laboratory ETS, New Mexico MPS 91047
2003 11 19.26605 02 45 09.99 +27 25 13.8 19.0   704 – Lincoln Laboratory ETS, New Mexico MPS 91047
2003 11 19.27855 02 45 09.37 +27 25 08.4 18.9   704 – Lincoln Laboratory ETS, New Mexico MPS 91047
2003 11 19.29103 02 45 08.78 +27 25 02.7 18.9   704 – Lincoln Laboratory ETS, New Mexico MPS 91047
2003 11 19.30377 02 45 08.13 +27 24 57.2 18.7   704 – Lincoln Laboratory ETS, New Mexico MPS 91047
2003 11 24.14526 02 41 28.94 +26 49 07.2 18.8 R 699 – Lowell Observatory-LONEOS MPS 91867
2003 11 24.16278 02 41 28.09 +26 48 57.7   699 – Lowell Observatory-LONEOS MPS 91867
2003 11 24.18032 02 41 27.41 +26 48 50.9   699 – Lowell Observatory-LONEOS MPS 91867
2003 11 24.19786 02 41 26.64 +26 48 43.4   699 – Lowell Observatory-LONEOS MPS 91867
2003 12 01.07140 02 37 01.90 +25 56 44.8 19.6 V 691 – Steward Observatory, Kitt Peak-Spacewatch MPS 92764
2003 12 01.09840 02 37 00.94 +25 56 32.8 19.7 V 691 – Steward Observatory, Kitt Peak-Spacewatch MPS 92764
2003 12 01.12555 02 36 59.98 +25 56 20.9 19.6 V 691 – Steward Observatory, Kitt Peak-Spacewatch MPS 92764
2003 12 13.28133 02 32 02.38 +24 28 52.6 19.6 V 703 – Catalina Sky Survey MPS 93724
2003 12 13.29738 02 32 01.95 +24 28 47.3 19.5 V 703 – Catalina Sky Survey MPS 93724
2003 12 13.31348 02 32 01.86 +24 28 41.0 19.5 V 703 – Catalina Sky Survey MPS 93724
2003 12 13.32956 02 32 01.61 +24 28 33.5 18.4 V 703 – Catalina Sky Survey MPS 93724
2003 12 23.15608 02 31 01.60 +23 28 21.3 20.0   704 – Lincoln Laboratory ETS, New Mexico MPS 94719
2003 12 23.16914 02 31 01.50 +23 28 16.4 20.0   704 – Lincoln Laboratory ETS, New Mexico MPS 94719
2003 12 23.18533 02 31 01.50 +23 28 11.3 19.8   704 – Lincoln Laboratory ETS, New Mexico MPS 94719
2003 12 23.19835 02 31 01.52 +23 28 06.9 19.8   704 – Lincoln Laboratory ETS, New Mexico MPS 94719
2005 02 14.25214 09 51 23.49 +01 35 02.9 19.9 R 703 – Catalina Sky Survey MPS 126775
2005 02 14.26161 09 51 23.04 +01 35 04.5 19.6 R 703 – Catalina Sky Survey MPS 126775
2005 02 14.27110 09 51 22.43 +01 35 04.9 18.7 R 703 – Catalina Sky Survey MPS 126775
2005 02 14.28063 09 51 21.99 +01 35 07.7 20.1 R 703 – Catalina Sky Survey MPS 126775
2005 03 10.28940 09 33 10.44 +02 56 15.6 20.0 R 703 – Catalina Sky Survey MPS 127964
2005 03 10.30031 09 33 10.07 +02 56 17.7 19.8 R 703 – Catalina Sky Survey MPS 127964
2005 03 10.31141 09 33 09.63 +02 56 21.1 20.9 R 703 – Catalina Sky Survey MPS 127964
2005 03 10.32235 09 33 09.12 +02 56 24.5 19.1 R 703 – Catalina Sky Survey MPS 127964
2008 09 05.26065 00 43 30.48 +20 03 08.8 19.6   704 – Lincoln Laboratory ETS, New Mexico MPS 255819
2008 09 05.27395 00 43 30.05 +20 03 09.3 19.7   704 – Lincoln Laboratory ETS, New Mexico MPS 255819
2008 09 05.28733 00 43 29.65 +20 03 10.0 19.5   704 – Lincoln Laboratory ETS, New Mexico MPS 255819
2008 09 05.30062 00 43 29.22 +20 03 10.1 19.9   704 – Lincoln Laboratory ETS, New Mexico MPS 255819
2008 09 05.31390 00 43 28.83 +20 03 11.3 19.9   704 – Lincoln Laboratory ETS, New Mexico MPS 255819
2008 09 05.35949 00 43 27.48 +20 03 13.8   291 – LPL/Spacewatch II MPS 255204
2008 09 05.37206 00 43 27.08 +20 03 14.5   291 – LPL/Spacewatch II MPS 255204
2008 09 05.38424 00 43 26.70 +20 03 15.1   291 – LPL/Spacewatch II MPS 255204
2008 09 06.37456 00 42 57.20 +20 04 00.3   291 – LPL/Spacewatch II MPS 255819
2008 09 06.38669 00 42 56.78 +20 04 00.0   291 – LPL/Spacewatch II MPS 255819
2008 09 06.39784 00 42 56.52 +20 04 00.3   291 – LPL/Spacewatch II MPS 255819
2008 09 09.30310 00 41 23.28 +20 04 58.0 19.1 V 703 – Catalina Sky Survey MPS 255819
2008 09 09.30904 00 41 22.95 +20 04 57.3 19.6 V 703 – Catalina Sky Survey MPS 255819
2008 09 09.31496 00 41 22.81 +20 04 59.1 18.9 V 703 – Catalina Sky Survey MPS 255819
2008 09 09.32087 00 41 22.52 +20 04 58.8 19.8 V 703 – Catalina Sky Survey MPS 255819
2008 09 22.40325 00 32 36.88 +19 45 49.6 19.7 V 703 – Catalina Sky Survey MPS 256634
2008 09 22.41050 00 32 36.70 +19 45 48.1 19.1 V 703 – Catalina Sky Survey MPS 256634
2008 09 22.41784 00 32 36.31 +19 45 47.5 19.5 V 703 – Catalina Sky Survey MPS 256634
2008 09 22.42500 00 32 35.95 +19 45 45.0 19.5 V 703 – Catalina Sky Survey MPS 256634
2008 09 24.24980 00 31 12.90 +19 40 02.4 19.4 V G96 – Mt. Lemmon Survey MPS 256634
2008 09 24.25619 00 31 12.57 +19 40 00.9 19.4 V G96 – Mt. Lemmon Survey MPS 256634
2008 09 24.26257 00 31 12.28 +19 39 59.8 19.4 V G96 – Mt. Lemmon Survey MPS 256634
2008 09 24.26889 00 31 11.96 +19 39 58.6 19.3 V G96 – Mt. Lemmon Survey MPS 256634
2008 10 02.22766 00 24 56.25 +19 07 05.5 19.2   704 – Lincoln Laboratory ETS, New Mexico MPS 257864
2008 10 02.24000 00 24 55.65 +19 07 02.4 19.7   704 – Lincoln Laboratory ETS, New Mexico MPS 257864
2008 10 02.25234 00 24 55.00 +19 06 58.2 20.1   704 – Lincoln Laboratory ETS, New Mexico MPS 257864
2008 10 02.26469 00 24 54.40 +19 06 55.5 19.8   704 – Lincoln Laboratory ETS, New Mexico MPS 257864
2008 10 02.27724 00 24 53.73 +19 06 50.9 19.7   704 – Lincoln Laboratory ETS, New Mexico MPS 257864
2008 10 24.23817 00 09 33.48 +16 49 59.9 19.4 V 703 – Catalina Sky Survey MPS 261435
2008 10 24.24734 00 09 33.08 +16 49 57.7 19.7 V 703 – Catalina Sky Survey MPS 261435
2008 10 24.25654 00 09 32.83 +16 49 52.3 19.5 V 703 – Catalina Sky Survey MPS 261435
